Overview Statistics Trail Chart Weather Telemetry Raw packets
 

This is the latest recevied weather packets stored in our database for station/object CT4TX-11. If no packets are shown the sender has not sent any weather packets the latest 10 day(s).

<< 35 36 37 38 39 >>
Time Temp. Humidity Pressure Rain* Wind** Luminosity Snow
1787792755 29.44° C 46% 998.3 hPa - - - -
1787791855 29.44° C 46% 998.6 hPa - - - -
1787790955 30° C 46% 998.6 hPa - - - -
1787790055 30° C 46% 998.7 hPa - - - -
1787789154 30° C 46% 998.8 hPa - - - -
1787788254 30° C 46% 998.9 hPa - - - -
1787787354 30° C 46% 998.8 hPa - - - -
1787786454 30° C 46% 998.8 hPa - - - -
1787785553 30.56° C 45% 998.9 hPa - - - -
1787784653 31.67° C 43% 999 hPa - - - -
1787783753 31.67° C 43% 999.2 hPa - - - -
1787782852 31.11° C 43% 999.3 hPa - - - -
1787781952 31.11° C 43% 999.3 hPa - - - -
1787781055 31.67° C 43% 999.4 hPa - - - -
1787780155 31.11° C 43% 999.5 hPa - - - -
1787779255 31.11° C 43% 999.4 hPa - - - -
1787778354 30.56° C 44% 999.4 hPa - - - -
1787777454 30° C 44% 999.4 hPa - - - -
1787776554 30° C 44% 999.2 hPa - - - -
1787775654 30° C 44% 999 hPa - - - -
1787774754 30° C 44% 999 hPa - - - -
1787773853 30.56° C 44% 998.8 hPa - - - -
1787772953 30.56° C 44% 998.9 hPa - - - -
1787772053 30.56° C 44% 998.8 hPa - - - -
1787771153 31.67° C 43% 998.8 hPa - - - -

* Rain since midnight (hover to see other rain measurements)
** Current wind speed in m/s (hover to see current wind gust speed)